Regional Weather Roundup
Issued by NWS

Home | Current Version | Previous Version | Text Only | Print | Product List | Glossary Off
Versions: 1 2 3 4 5 6 7 8 9 10 11 12 13 14 15 16 17 18 19 20 21 22 23 24 25 26 27 28

000
ASUS45 KBOI 241610
RWRID

IDAHO REGIONAL WEATHER ROUNDUP
NATIONAL WEATHER SERVICE BOISE ID
1000 AM MDT MON JUL 24 2017

NOTE: "FAIR" INDICATES FEW OR NO CLOUDS BELOW 12000 FEET
WITH NO SIGNIFICANT WEATHER AND/OR OBSTRUCTIONS TO VISIBILITY

IDZ012-014-241700-
SOUTHWEST IDAHO


CITY           SKY/WX    TMP DP  RH WIND       PRES   REMARKS
BOISE          CLOUDY    80  41  24 E13       29.91F
CALDWELL       CLOUDY    71  55  56 SE5       29.90R
MOUNTAIN HOME  PTSUNNY   81  47  31 NE9       29.92S
$$

IDZ016-017-241700-
SOUTHCENTRAL IDAHO


CITY           SKY/WX    TMP DP  RH WIND       PRES   REMARKS
BURLEY         SUNNY     75  51  43 S3        29.99F
JEROME         SUNNY     79  51  37 S6        30.00S
TWIN FALLS     SUNNY     86  45  23 SW9       29.99S
$$

IDZ019>023-241700-
SOUTHEAST IDAHO


CITY           SKY/WX    TMP DP  RH WIND       PRES   REMARKS
IDAHO FALLS    MOSUNNY   75  46  35 VRB5      30.06F
POCATELLO      MOSUNNY   81  46  29 CALM      30.04F
REXBURG        CLOUDY    70  50  49 CALM      30.07S
$$

IDZ006-010-011-018-031-032-241700-
CENTRAL IDAHO MOUNTAINS


CITY           SKY/WX    TMP DP  RH WIND       PRES   REMARKS
MCCALL         MOSUNNY   69  49  48 CALM      30.05F
HAILEY         MOSUNNY   70  41  35 W9        30.09F
STANLEY          N/A     65  37  35 CALM      30.19F
SALMON         NOT AVBL
CHALLIS        MOSUNNY   70  41  34 CALM      30.08F
$$

IDZ002-004-006-007-026-241700-
NORTHERN IDAHO


CITY           SKY/WX    TMP DP  RH WIND       PRES   REMARKS
LEWISTON       SUNNY     79  45  29 NW10      29.93S
LOWELL           N/A     69  55  60 CALM      29.94F
COEUR D`ALENE  SUNNY     71  39  31 SW7       29.97R
MULLAN PASS    SUNNY     62  41  46 CALM      30.09S
$$




USA.gov is the U.S. government's official web portal to all federal, state and local government web resources and services.